Погода Шахунья

Погода Шахунья : погода сейчас, прогноз погоды и архив. Всё, что Вы хотите узнать о погоде Шахунья!

Поиск расширенной информации на нашем сайте:

Другие новости

Новости СМИ2

Главная страница сайта

Новости сайта

03.07.2017

Напоминаем, что на нашем специализированном сайте Метеоцентр.Азия вы можете получить высокодетализированные автоматические прогнозы погоды по пунктам России, СНГ и мира в авиационном формате (включающие направление и скорость ветра, видимость, явления погоды, количество и форму облачности, нижнюю и верхнюю границу облачности).


Погода Шахунья - сегодня

Время (UTC), дата Ветер
(°,м/с) 
Видим.   Явления Облачность Т
(°С)
Тd
(°С)
f(%) Тe
(°С)
Pmin
(гПа)
dP
(гПа)
Po
(мм)
O2
(г/м3)
Тmin Tmax R s Состояние
почвы
03 17.10.17 170 (Ю) 3-4{04}  1000 м  дымка{туман}  10/10 200 м 
[St]
+2.8 +2.3 97 +1  1006.9  -1.7  739  294  +2.8    0.1     
06 17.10.17 220 (ЮЗ) 4-7{08}  1000 м  дымка{туман}  10/10 200 м 
[St]
+4.2 +3.5 95 +2  1005.1  -1.7  738  292           
09 17.10.17 200 (Ю) 2-4{07}  10 км  слаб. ливневой дождь  10/10 200 м кучево-дожд. 
[Cb cap]
+4.9 +4.2 95 +5  1003.9  -1.2  737  291           
12 17.10.17 250 (З) 4-6{06}  20000 м  в посл. час ливневой дождь  10/10 200 м 
[St]
+5 +4.3 95 +3  1004  0.1  737  291           
15 17.10.17 250 (З) 4-6{06}  4000 м    10/10 300 м 
[St]
+5.1 +4.2 94 +3  1004.7  0.7  737  291    +5.3     
18 17.10.17 230 (ЮЗ) 3-5{06}  4000 м    10/10 600 м 
[Sc]
+5.4 +4.2 92 +4  1004.9  0.2  738  291           
21 17.10.17 260 (З) 3-6{07}  4000 м  {ливн. осадки}  9/9 600 м 
[Sc]
+5.5 +3.3 86 +4  1005  0.1  738  291           
00 18.10.17 240 (ЮЗ) 3-5{08}  4000 м  {ливн. осадки}  10/10 600 м 
[Sc]
+3.5 +1.7 88 +2  1005.2  0.1  738  293           
03 18.10.17 230 (ЮЗ) 3-5{07}  4000 м    10/6 600 м средняя 
[Sc|Ac As]
+2.7 +1.4 91 +1  1004.4  -0.9  737  294  +2.3    0.0     
06 18.10.17 210 (ЮЗ) 4-5{08}  20000 м    10/10 300 м 
[St]
+3.4 +1.9 90 +1  1003  -1.2  736  293           
09 18.10.17 190 (Ю) 4-6{07}  20000 м  {морось}  10/10 200 м 
[St]
+4.3 +3.3 93 +3  1000.1  -2.8  734  291           
12 18.10.17 220 (ЮЗ) 5-7{08}  20000 м  слаб. морось{ливн. осадки}  10/10 100 м 
[St]
+5.2 +4.3 94 +3  998  -1.9  733  289           
15 18.10.17 210 (ЮЗ) 5-7{08}  4000 м  слаб. морось  10/10 100 м 
[St]
+6.8 +5.9 94 +5  996.7  -1.2  732  287    +6.8     
18 18.10.17 230 (ЮЗ) 4-8{10}  4000 м  слаб. морось  10/10 200 м 
[St]
+8.9 +7.7 92 +8  995.4  -1.1  731  284           
21 18.10.17 240 (ЮЗ) 5-7{09}  4000 м  {морось}  10/10 300 м 
[St]
+9.2 +7.7 90 +8  994.6  -0.8  730  283           
00 19.10.17 230 (ЮЗ) 5-9{11}  4000 м  {морось}  10/10 300 м 
[Sc]
+8.6 +6.7 88 +7  992.8  -1.7  729  284           
03 19.10.17 290 (З) 6-12{16}  4000 м    9/9 300 м 
[Sc]
+5 +2.5 84 +2  996.6  3.4  732  289  +4.8    0.4     
06 19.10.17 290 (З) 5-9{15}  20000 м    9/8 600 м кучево-дожд., средняя 
[Cb cap|Ac As]
+4.2 +1.7 84 +2  1000.5  3.6  734  291  +3.9         
09 19.10.17 290 (З) 4-9{16}  20000 м  слаб. ливневой дождь  9/9 600 м кучево-дожд. 
[Cb cap]
+5 +0.9 75 +3  1002.5  2.1  736  291           
12 19.10.17 290 (З) 5-10{16}  20000 м  слаб. ливневой дождь  9/9 300 м кучево-дожд., средняя 
[Cb cap|Ac As]
+5 +1.2 76 +3  1005.1  2.5  738  292           
15 19.10.17 290 (З) 3-7{13}  4000 м  в посл. час ливневой дождь  9/8 600 м кучево-дожд., средняя 
[Cb cap|Ac cast]
+4.4 +0.5 76 +3  1006.9  1.7  739  293    +5.4  0.5     
18 19.10.17 280 (З) 3-6{09}  4000 м  {ливн. осадки}  10/6 600 м средняя 
[Sc|Ac und]
+4.2 +0.5 77 +3  1008.1  1.2  740  294           
21 19.10.17 310 (СЗ) 4-7{09}  4000 м  {ливн. осадки}  8/8 600 м 
[Sc]
+2.5 +0.4 86 1009.5  1.2  741  296           
00 20.10.17 310 (СЗ) 2-4{09}  4000 м  {ливн. осадки}  9/9 300 м 
[Sc]
+1.4 -0.5 87 +1  1011.4  1.8  742  298           
03 20.10.17 300 (СЗ) 4-6{06}  4000 м    9/9 300 м 
[St]
-0.3 -1.8 90 -3  1013  1.5  743  300  -0.6    0.1    влажная 
Время (UTC), дата Ветер
(°,м/с) 
Видим.   Явления Облачность Т
(°С)
Тd
(°С)
f(%) Тe
(°С)
Pmin
(гПа)
dP
(гПа)
Po
(мм)
O2
(г/м3)
Тmin Tmax R s Состояние
почвы

Для получения пояснительной информации подведите курсор к названию столбца.

ПОГОДА Шахунья - архив

Всё, что Вы хотите узнать о погоде Шахунья - удобно и подробно!

Выберите нужную дату (начиная с 1 января 2015* года) и нажмите кнопку "Найти".
Будут отображены архивные сводки погоды по пункту Шахунья, начиная с указанной даты.


Отображать данные в формате CSV (для использования в таблицах Excel)


Внимание! Наш архив погоды предназначен исключительно для личного некоммерческого использования в познавательных целях. Если Вам необходимы официальные справки о состоянии погоды (для производственных, юридических, коммерческих и т.п. целей), обращайтесь в органы Росгидромета.

*Примечание: данная дата относится к архиву по метеостанциям СССР (Россия, СНГ, Балтия).
Архив по метеостанциям Зарубежной Европы и Азии (кроме Китая) хранится 10 дней, по другим регионам земного шара (Китай, Африка, Америка, Австралия, Океания) - 1 день.

Шахунья - район местоположения метеостанции


Название, широта, долгота, высота метеостанции:
Шахунья 57.7°ш. 46.6°д. 175 м над ур. моря [Российская Федерация]

Дополнительная информация

В oтличие oт бoльшинства пoгoдных сайтoв мы публикуем пoдрoбную метеoинфoрмацию в детальнoм прoфессиoнальнoм фoрмате.

Характеристики температуры и влажнoсти вoздуха измеряются на высoте 2 м в тени вдали oт зданий и деревьев.
Скoрoсть ветра измеряется на высoте 10 м (на урoвне рoста челoвека скoрoсть ветра ниже в 1.5-2 раза). Если метеoстанция нахoдится в гoрoде или в лесу, тo скoрoсть ветра занижена на 2-4 м/с пo сравнению с oткрытым местoм. Скoрoсть ветра над акватoриями крупных рек и oзёр, а также на вершинах хoлмoв на 2-5 м/с выше, чем в oбычных услoвиях.
Атмoсфернoе давление в разных тoчках местнoсти мoжет значительнo oтличаться oт давления на метеoстанции, в зависимoсти oт услoвий рельефа (при пoдъёме на 10 м давление пoнижается примернo на 1 мм рт.ст.).